Volver al catálogo

STARLINK-37683

ActivoComunicacionesVLEO
NORAD 69367·PAYLOAD·🇺🇸 United States

Lanzado Jun 4, 2026 desde Cape Canaveral Space Force Station

Loading…

Próximos Pases (próximas 24 horas)

TLE

ActualizadoSource: CelesTrak SupGP

Época: Sep 15, 2026, 03:08 UTC

1 69367C 26123Q   26258.13104167 -.00006362  00000+0 -18797-3 0  2582
2 69367  53.1594 167.0672 0001353  76.5227 238.0405 15.34390881    15

Sigue STARLINK-37683 en tiempo real con AllMySat

Download on the App Store